LFPM 032000Z AUTO 20013KT 6000 -RA OVC005/// ///TCU 06/05 Q1004

Les avions qui composent notre flotte

Avion Robin DR400-120

Avion école

F-GAHP
   * tarif promotionnel appliqué pendant la formation des élèves non brevetés


F-GAHP Planche